[[{"header":{"parameterUnit":"m.s-1","parameterCategory":2,"la1":30.2992,"la2":30.254,"lo1":-89.0895,"lo2":-89.0443,"dy":0.0025,"dx":0.0025,"nx":19,"ny":19,"refTime":"2026-03-13T21:00:00:Z","depth":"0","parameterNumber":2,"parameterNumberName":"U-component_of_CURRENTS"},"data":[0,0,0,0.1001,0.1002,0.1038,0.1038,0.1069,0.1069,0,0,0,0,0,0,0,0,0,0,0,0.0983,0.0983,0.1001,0.1002,0.1038,0.1038,0.1069,0.1069,0,0,0,0,0,0,0,0,0,0,0,0.0983,0.0983,0.0983,0.1002,0.1038,0.1038,0.1069,0.1044,0,0,0,0,0,0,0,0,0,0,0.101,0.0994,0.0983,0.0983,0.1002,0.1038,0.1038,0.1043,0.1046,0.105,0,0.1057,0,0.1069,0.1072,0.1072,0,0,0,0.0996,0.0992,0.1008,0.0983,0.1003,0.1038,0.102,0.1045,0.1047,0.1053,0.1057,0.1059,0.1069,0.1072,0.1072,0.1126,0.1127,0,0,0.0994,0.0984,0.1005,0.1009,0.1014,0.1019,0.1021,0.1046,0.1047,0.1057,0.106,0.107,0.1072,0.1072,0.1126,0.1126,0,0,0,0.0992,0.0982,0.0997,0.1008,0.1019,0.102,0.1023,0.1045,0.1052,0.106,0.107,0.1072,0.1073,0.1126,0.1126,0.1154,0,0,0,0.0991,0.0982,0.0996,0.099,0.1018,0.1034,0.1021,0.105,0.1054,0.107,0.1072,0.1073,0.1125,0.1126,0.1152,0.116,0,0,0,0.0981,0.0981,0.0987,0.0989,0.1009,0.1034,0.1042,0.1051,0.106,0.1072,0.1073,0.1125,0.1126,0.1151,0.1158,0.1243,0,0,0,0.0966,0.0975,0.0986,0.1002,0.1009,0.1043,0.1042,0.1063,0.1074,0.1072,0.1125,0.1126,0.115,0.1157,0.1241,0.1323,0.1341,0,0,0.097,0.0975,0.0986,0.0997,0.1027,0.1038,0.1075,0.1086,0.1089,0.1114,0.1115,0.1153,0.1158,0.1243,0.1371,0.1388,0,0,0,0.0982,0.0989,0.1001,0.1021,0.1048,0.1078,0.1094,0.111,0.1139,0.1101,0.1162,0.1164,0.1218,0.1262,0.1275,0.1338,0.113,0.113,0.113,0.0964,0.0988,0.1007,0.104,0.1065,0.1108,0.1139,0.1165,0.1161,0.1182,0.1194,0.1284,0.133,0.1342,0.1405,0.1204,0.1204,0.1205,0.1205,0.0969,0.0977,0.1014,0.104,0.1079,0.1114,0.1179,0.1195,0.1272,0.1232,0.1284,0.1296,0.1359,0.1421,0.1207,0.1206,0.1206,0.1206,0.1206,0.0949,0.0956,0.0978,0.1017,0.1061,0.1114,0.1198,0.1243,0.1295,0.134,0.1434,0.1434,0.1487,0.1386,0.1387,0.1387,0.1388,0.1388,0.1388,0.0911,0.0936,0.0948,0.0994,0.1019,0.1087,0.1212,0.1304,0.1442,0.1478,0.1479,0.1534,0.1341,0.1331,0.1395,0.1393,0.1393,0.1392,0.1392,0.088,0.0887,0.0907,0.0927,0.1002,0.1069,0.1207,0.1438,0.1561,0.1645,0.1732,0.1572,0.1582,0.1571,0.1568,0.169,0.169,0.169,0.169,0.0845,0.0855,0.0872,0.0901,0.0969,0.1059,0.1242,0.1464,0.1733,0.1859,0.1889,0.186,0.1845,0.1867,0.185,0.185,0.2041,0.2041,0.2042,0.0819,0.0832,0.0834,0.0876,0.0944,0.1062,0.1207,0.144,0.1857,0.2058,0.1965,0.195,0.1902,0.1873,0.1898,0.1869,0.1865,0,0]},{"header":{"parameterUnit":"m.s-1","parameterCategory":2,"la1":30.2992,"la2":30.254,"lo1":-89.0895,"lo2":-89.0443,"dy":0.0025,"dx":0.0025,"nx":19,"ny":19,"refTime":"2026-03-13T21:00:00:Z","depth":"0","parameterNumber":3,"parameterNumberName":"V-component_of_CURRENTS"},"data":[0,0,0,-0.003,-0.0031,-0.0076,-0.0076,-0.0147,-0.0148,0,0,0,0,0,0,0,0,0,0,0,-0.0013,-0.0014,-0.003,-0.0031,-0.0076,-0.0076,-0.0147,-0.0148,0,0,0,0,0,0,0,0,0,0,0,-0.0013,-0.0014,-0.0014,-0.0031,-0.0076,-0.0076,-0.0147,-0.0111,0,0,0,0,0,0,0,0,0,0,-0.0066,-0.0044,-0.0014,-0.0014,-0.0031,-0.0076,-0.0076,-0.0109,-0.0113,-0.0129,0,-0.0131,0,-0.0139,-0.0152,-0.0153,0,0,0,-0.0037,-0.004,-0.0055,-0.0014,-0.0031,-0.0075,-0.0057,-0.0112,-0.0116,-0.0134,-0.0132,-0.0135,-0.014,-0.0153,-0.0153,-0.0185,-0.0185,0,0,-0.0035,-0.0022,-0.0051,-0.0057,-0.0038,-0.0056,-0.0059,-0.0114,-0.0116,-0.0132,-0.0136,-0.0141,-0.0153,-0.0154,-0.0185,-0.0185,0,0,0,-0.0023,-0.002,-0.0033,-0.0054,-0.006,-0.0057,-0.006,-0.0113,-0.0118,-0.0137,-0.0142,-0.0154,-0.0154,-0.0185,-0.0185,-0.0137,0,0,0,-0.0022,-0.0013,-0.0032,-0.0025,-0.0059,-0.0085,-0.0058,-0.0114,-0.0121,-0.0142,-0.0154,-0.0155,-0.0185,-0.0185,-0.0139,-0.0096,0,0,0,-0.0012,-0.0012,-0.0016,-0.0024,-0.0041,-0.0084,-0.0092,-0.0116,-0.0124,-0.0153,-0.0155,-0.0186,-0.0185,-0.014,-0.0099,-0.0029,0,0,0,-0.0001,0.0008,-0.0016,-0.0008,-0.004,-0.0053,-0.0092,-0.0108,-0.0129,-0.0154,-0.0185,-0.0185,-0.014,-0.0101,-0.0032,0.0104,0.0128,0,0,0.002,0.0011,0.0016,-0.0007,-0.0004,-0.0048,-0.0051,-0.0096,-0.013,-0.017,-0.0171,-0.0138,-0.0099,-0.003,0.0124,0.0149,0,0,0,0.0028,0.0033,0.0029,0.0024,0.0002,-0.0011,-0.0059,-0.0081,-0.0116,-0.014,-0.0144,-0.0121,-0.0078,-0.0003,0.0016,-0.0102,-0.0183,-0.0183,-0.0183,0.0075,0.0062,0.0074,0.0057,0.0048,0.001,-0.0001,-0.0041,-0.009,-0.0096,-0.0087,-0.0007,0.0072,0.0088,-0.0037,-0.0106,-0.0106,-0.0105,-0.0105,0.0115,0.0124,0.011,0.0116,0.0096,0.0086,0.0048,0.0017,0.0014,-0.0049,-0.001,0.0037,0.0112,-0.0029,-0.0102,-0.0103,-0.0103,-0.0104,-0.0104,0.0148,0.0151,0.015,0.0162,0.0167,0.0138,0.0196,0.0135,0.0081,0.0103,0.0202,0.0202,0.0087,0.0126,0.0127,0.0127,0.0128,0.0128,0.0128,0.0181,0.0182,0.0205,0.0211,0.023,0.0269,0.0284,0.0325,0.0338,0.0288,0.0289,0.0109,0.0064,0.0065,0.0136,0.0134,0.0133,0.0133,0.0132,0.0222,0.0221,0.0265,0.0289,0.0363,0.0487,0.0496,0.0627,0.0632,0.0666,0.0366,0.0392,0.0402,0.0387,0.0396,0.0549,0.0549,0.0549,0.0549,0.0254,0.0253,0.0336,0.0406,0.0515,0.0598,0.0839,0.0891,0.0726,0.0596,0.0465,0.0404,0.0393,0.0394,0.0379,0.0384,0.053,0.0529,0.0529,0.0287,0.0309,0.0388,0.0462,0.0588,0.0771,0.1001,0.1079,0.0778,0.0506,0.0271,0.0272,0.0151,0.0142,0.0116,0.0105,0.0102,0,0]}],[{"header":{"parameterUnit":"m.s-1","parameterCategory":2,"la1":30.2992,"la2":30.254,"lo1":-89.0895,"lo2":-89.0443,"dy":0.0025,"dx":0.0025,"nx":19,"ny":19,"refTime":"2026-03-13T21:00:00:Z","depth":"2","parameterNumber":2,"parameterNumberName":"U-component_of_CURRENTS"},"data":[0,0,0,0.1064,0.1065,0.1103,0.1103,0.1134,0.1134,0,0,0,0,0,0,0,0,0,0,0,0.1046,0.1047,0.1064,0.1065,0.1103,0.1103,0.1134,0.1134,0,0,0,0,0,0,0,0,0,0,0,0.1046,0.1047,0.1047,0.1066,0.1103,0.1103,0.1134,0.1109,0,0,0,0,0,0,0,0,0,0,0.1074,0.1059,0.1047,0.1047,0.1066,0.1103,0.1103,0.1108,0.111,0.1114,0,0.1121,0,0.1133,0.1137,0.1137,0,0,0,0.106,0.1057,0.1072,0.1047,0.1066,0.1103,0.1084,0.1109,0.1112,0.1118,0.1122,0.1123,0.1134,0.1137,0.1137,0.1194,0.1194,0,0,0.1058,0.1048,0.107,0.1074,0.1078,0.1083,0.1086,0.1111,0.1112,0.1122,0.1124,0.1134,0.1137,0.1137,0.1193,0.1194,0,0,0,0.1056,0.1047,0.1061,0.1072,0.1083,0.1084,0.1087,0.111,0.1117,0.1125,0.1135,0.1137,0.1138,0.1193,0.1193,0.1216,0,0,0,0.1054,0.1046,0.106,0.1054,0.1082,0.1099,0.1086,0.1115,0.1118,0.1134,0.1137,0.1138,0.1192,0.1193,0.1215,0.1224,0,0,0,0.1044,0.1045,0.1051,0.1054,0.1073,0.1099,0.1106,0.1116,0.1125,0.1137,0.1138,0.1192,0.1193,0.1213,0.1222,0.1307,0,0,0,0.1031,0.104,0.105,0.1066,0.1073,0.1107,0.1106,0.1128,0.1139,0.1138,0.1193,0.1193,0.1213,0.1221,0.1305,0.1357,0.1372,0,0,0.1035,0.104,0.1051,0.1062,0.1091,0.1102,0.1139,0.115,0.1155,0.1181,0.1183,0.1215,0.1222,0.1307,0.1408,0.1422,0,0,0,0.1048,0.1054,0.1065,0.1085,0.1112,0.1141,0.1158,0.1174,0.1204,0.1168,0.1227,0.1231,0.1284,0.131,0.1321,0.1198,0.1198,0.1197,0.1197,0.1029,0.1053,0.1071,0.1102,0.1127,0.117,0.1201,0.1229,0.1225,0.1247,0.1258,0.1347,0.1374,0.1384,0.1268,0.1268,0.1268,0.1269,0.1269,0.1033,0.1041,0.1076,0.1102,0.114,0.1174,0.124,0.1256,0.1334,0.1296,0.1347,0.1342,0.1398,0.1271,0.127,0.127,0.127,0.127,0.127,0.1013,0.102,0.104,0.1079,0.1121,0.1173,0.1259,0.1303,0.1356,0.14,0.1475,0.1475,0.138,0.1446,0.1446,0.1447,0.1447,0.1447,0.1448,0.0976,0.1,0.1012,0.1055,0.108,0.115,0.1275,0.1367,0.149,0.1515,0.1516,0.1408,0.1403,0.1392,0.1454,0.1453,0.1452,0.1451,0.1451,0.0945,0.0952,0.0973,0.0994,0.1072,0.1146,0.1279,0.1494,0.1609,0.1683,0.1601,0.1595,0.1605,0.1596,0.159,0.1701,0.1701,0.1701,0.1701,0.0911,0.0921,0.0943,0.0978,0.1052,0.1145,0.131,0.1455,0.1604,0.1625,0.1628,0.1566,0.1559,0.1561,0.1552,0.1544,0.1642,0.1642,0.1641,0.0886,0.0901,0.091,0.0959,0.1036,0.1161,0.1265,0.1336,0.1486,0.1629,0.1516,0.1716,0.1631,0.1618,0.1623,0.1608,0.1595,0,0]},{"header":{"parameterUnit":"m.s-1","parameterCategory":2,"la1":30.2992,"la2":30.254,"lo1":-89.0895,"lo2":-89.0443,"dy":0.0025,"dx":0.0025,"nx":19,"ny":19,"refTime":"2026-03-13T21:00:00:Z","depth":"2","parameterNumber":3,"parameterNumberName":"V-component_of_CURRENTS"},"data":[0,0,0,-0.0149,-0.015,-0.0194,-0.0194,-0.0261,-0.0262,0,0,0,0,0,0,0,0,0,0,0,-0.0133,-0.0133,-0.0149,-0.015,-0.0194,-0.0194,-0.0261,-0.0262,0,0,0,0,0,0,0,0,0,0,0,-0.0133,-0.0133,-0.0133,-0.015,-0.0193,-0.0194,-0.0261,-0.0227,0,0,0,0,0,0,0,0,0,0,-0.0183,-0.0161,-0.0133,-0.0133,-0.015,-0.0193,-0.0194,-0.0225,-0.0229,-0.0243,0,-0.0245,0,-0.0253,-0.0266,-0.0266,0,0,0,-0.0156,-0.0158,-0.0172,-0.0133,-0.015,-0.0193,-0.0176,-0.0227,-0.0231,-0.0248,-0.0246,-0.0248,-0.0254,-0.0266,-0.0267,-0.0291,-0.029,0,0,-0.0154,-0.0141,-0.0169,-0.0174,-0.0156,-0.0174,-0.0177,-0.023,-0.0231,-0.0246,-0.025,-0.0255,-0.0267,-0.0267,-0.0291,-0.0291,0,0,0,-0.0143,-0.0139,-0.0152,-0.0172,-0.0178,-0.0175,-0.0178,-0.0228,-0.0233,-0.0251,-0.0256,-0.0267,-0.0268,-0.0291,-0.0291,-0.0241,0,0,0,-0.0141,-0.0132,-0.0151,-0.0144,-0.0177,-0.0201,-0.0176,-0.0229,-0.0236,-0.0256,-0.0267,-0.0269,-0.0291,-0.0291,-0.0243,-0.0205,0,0,0,-0.0132,-0.0131,-0.0135,-0.0143,-0.0159,-0.0201,-0.0208,-0.0231,-0.0239,-0.0266,-0.0269,-0.0291,-0.0291,-0.0244,-0.0209,-0.0163,0,0,0,-0.012,-0.0112,-0.0135,-0.0127,-0.0159,-0.017,-0.0208,-0.0223,-0.0242,-0.0267,-0.0291,-0.0291,-0.0245,-0.0211,-0.0165,-0.0141,-0.0128,0,0,-0.0101,-0.0109,-0.0104,-0.0126,-0.0121,-0.0165,-0.0164,-0.0207,-0.0241,-0.0277,-0.0277,-0.0242,-0.0209,-0.0164,-0.0113,-0.01,0,0,0,-0.0092,-0.0087,-0.009,-0.0094,-0.0114,-0.0124,-0.017,-0.0191,-0.0221,-0.0249,-0.0246,-0.0227,-0.0199,-0.0191,-0.0181,-0.0288,-0.0288,-0.0289,-0.0289,-0.0048,-0.0059,-0.0046,-0.006,-0.0066,-0.0101,-0.0111,-0.0148,-0.0193,-0.0196,-0.019,-0.0124,-0.0115,-0.0107,-0.0203,-0.0203,-0.0202,-0.0202,-0.0202,-0.0009,0.0,-0.0009,-0.0001,-0.0017,-0.0023,-0.0058,-0.0087,-0.0096,-0.0147,-0.0123,-0.0143,-0.0093,-0.0198,-0.0199,-0.0199,-0.02,-0.02,-0.02,0.0022,0.0026,0.0028,0.0043,0.0051,0.0027,0.007,0.0016,-0.0034,-0.0019,-0.0011,-0.0012,-0.0078,-0.0009,-0.0009,-0.0008,-0.0008,-0.0008,-0.0007,0.0052,0.0055,0.0078,0.0088,0.0105,0.0136,0.0143,0.0164,0.0127,0.006,0.0059,-0.0058,-0.0065,-0.0067,-0.0002,-0.0003,-0.0003,-0.0004,-0.0004,0.0088,0.0088,0.0128,0.0149,0.0209,0.0291,0.0297,0.0337,0.0323,0.0308,0.0103,0.0099,0.0091,0.0082,0.0083,0.0183,0.0183,0.0183,0.0183,0.0115,0.0116,0.0183,0.0238,0.0319,0.0369,0.0501,0.047,0.0349,0.0224,0.0222,0.0172,0.0164,0.0156,0.0145,0.0146,0.0263,0.0263,0.0263,0.0142,0.0159,0.022,0.0277,0.0368,0.0485,0.0586,0.0562,0.0367,0.0264,0.0217,0.0192,0.0111,0.0101,0.0079,0.0065,0.0062,0,0]}],[{"header":{"parameterUnit":"m.s-1","parameterCategory":2,"la1":30.2992,"la2":30.254,"lo1":-89.0895,"lo2":-89.0443,"dy":0.0025,"dx":0.0025,"nx":19,"ny":19,"refTime":"2026-03-13T21:00:00:Z","depth":"4","parameterNumber":2,"parameterNumberName":"U-component_of_CURRENTS"},"data":[0,0,0,0.0834,0.0835,0.0919,0.0919,0.097,0.097,0,0,0,0,0,0,0,0,0,0,0,0.0807,0.0808,0.0833,0.0836,0.0919,0.0919,0.097,0.097,0,0,0,0,0,0,0,0,0,0,0,0.0807,0.0808,0.0808,0.0836,0.0919,0.0919,0.097,0.092,0,0,0,0,0,0,0,0,0,0,0.0846,0.0833,0.0807,0.0809,0.0836,0.0919,0.0919,0.0918,0.0923,0.0917,0,0.0937,0,0.0954,0.0972,0.0973,0,0,0,0.0834,0.0829,0.0849,0.0809,0.0837,0.0919,0.0881,0.0922,0.0927,0.0923,0.0938,0.094,0.0955,0.0973,0.0973,0.1025,0.1026,0,0,0.0829,0.0822,0.0846,0.0853,0.0868,0.0878,0.0883,0.0926,0.0935,0.0938,0.0942,0.0955,0.0973,0.0973,0.1025,0.1026,0,0,0,0.0817,0.0819,0.0839,0.085,0.087,0.0881,0.0887,0.0933,0.094,0.0942,0.0956,0.0973,0.0974,0.1025,0.1025,0.1056,0,0,0,0.0814,0.0812,0.0837,0.0834,0.0869,0.0911,0.0893,0.0937,0.0942,0.0956,0.0973,0.0974,0.1024,0.1025,0.1055,0.1062,0,0,0,0.0802,0.0811,0.0823,0.0833,0.087,0.0911,0.092,0.0939,0.095,0.0973,0.0974,0.1024,0.1025,0.1053,0.106,0.1101,0,0,0,0.0787,0.0806,0.0823,0.085,0.0869,0.0914,0.092,0.0959,0.0981,0.0973,0.1025,0.1025,0.1053,0.1058,0.11,0.097,0,0,0,0.0797,0.0807,0.0821,0.0839,0.0877,0.0902,0.0948,0.0981,0.0988,0.1005,0.1007,0.1055,0.1059,0.1101,0.1016,0,0,0,0,0.0815,0.0827,0.0842,0.0873,0.0906,0.0947,0.0981,0.1,0.1041,0.1006,0.1062,0.1064,0.1089,0.1009,0.1029,0.1029,0.1029,0.1029,0.1029,0.0807,0.083,0.0857,0.0892,0.0925,0.0983,0.1019,0.1052,0.1056,0.1083,0.1095,0.1153,0.1069,0.1104,0.1104,0.1104,0.1104,0.1104,0.1104,0.0811,0.0821,0.0866,0.0901,0.0949,0.0994,0.1059,0.1084,0.1144,0.1129,0.1153,0.1053,0.1108,0.1107,0.1107,0.1106,0.1106,0.1106,0.1106,0.0789,0.0797,0.0833,0.0887,0.0946,0.1008,0.1068,0.1123,0.117,0.12,0.1133,0.1181,0.1173,0.1226,0.1227,0.1227,0.1227,0.1227,0.1227,0.0745,0.078,0.081,0.0872,0.091,0.0977,0.1081,0.1122,0.1187,0.1154,0.122,0.1194,0.119,0.1181,0.1231,0.123,0.123,0.1229,0.1229,0.0706,0.0729,0.0765,0.0802,0.0882,0.0917,0.1031,0.1089,0.1135,0.1136,0.1132,0.1136,0.1115,0.1114,0.11,0.1128,0.1127,0.1126,0,0.0671,0.0687,0.0729,0.0768,0.0808,0.088,0.0913,0.0981,0.1043,0.1012,0.1135,0.1128,0.113,0.1104,0.11,0.1082,0,0,0,0.0645,0.0665,0.0678,0.0729,0.0766,0.0828,0.0917,0.0917,0.103,0.1033,0.1089,0.1098,0.1165,0.1241,0.1219,0.1215,0.1198,0,0]},{"header":{"parameterUnit":"m.s-1","parameterCategory":2,"la1":30.2992,"la2":30.254,"lo1":-89.0895,"lo2":-89.0443,"dy":0.0025,"dx":0.0025,"nx":19,"ny":19,"refTime":"2026-03-13T21:00:00:Z","depth":"4","parameterNumber":3,"parameterNumberName":"V-component_of_CURRENTS"},"data":[0,0,0,-0.0129,-0.013,-0.0177,-0.0177,-0.0234,-0.0234,0,0,0,0,0,0,0,0,0,0,0,-0.0113,-0.0114,-0.0129,-0.013,-0.0177,-0.0177,-0.0234,-0.0234,0,0,0,0,0,0,0,0,0,0,0,-0.0113,-0.0114,-0.0114,-0.013,-0.0177,-0.0178,-0.0234,-0.02,0,0,0,0,0,0,0,0,0,0,-0.0156,-0.0138,-0.0113,-0.0114,-0.013,-0.0177,-0.0178,-0.0199,-0.0202,-0.0209,0,-0.0214,0,-0.0223,-0.0237,-0.0238,0,0,0,-0.0136,-0.0135,-0.0148,-0.0114,-0.0131,-0.0177,-0.0158,-0.0201,-0.0205,-0.0214,-0.0215,-0.0217,-0.0224,-0.0238,-0.0238,-0.0244,-0.0244,0,0,-0.0133,-0.0123,-0.0145,-0.0151,-0.014,-0.0156,-0.0159,-0.0204,-0.0206,-0.0215,-0.0219,-0.0225,-0.0238,-0.0238,-0.0244,-0.0244,0,0,0,-0.0122,-0.0121,-0.0133,-0.0148,-0.0156,-0.0157,-0.0161,-0.0204,-0.0208,-0.0219,-0.0225,-0.0238,-0.0239,-0.0245,-0.0244,-0.0204,0,0,0,-0.0121,-0.0114,-0.0132,-0.0127,-0.0155,-0.0181,-0.016,-0.0205,-0.0211,-0.0225,-0.0238,-0.0239,-0.0245,-0.0244,-0.0206,-0.018,0,0,0,-0.0112,-0.0114,-0.0118,-0.0126,-0.0144,-0.018,-0.0187,-0.0207,-0.0214,-0.0238,-0.0239,-0.0245,-0.0244,-0.0207,-0.0183,-0.0183,0,0,0,-0.0102,-0.0098,-0.0118,-0.0114,-0.0143,-0.0152,-0.0187,-0.0202,-0.0219,-0.0239,-0.0245,-0.0244,-0.0208,-0.0184,-0.0185,-0.0166,0,0,0,-0.0089,-0.0096,-0.0093,-0.0111,-0.0106,-0.0146,-0.0141,-0.0182,-0.021,-0.0232,-0.0232,-0.0205,-0.0183,-0.0184,-0.0126,0,0,0,0,-0.0083,-0.0079,-0.0081,-0.0085,-0.01,-0.0107,-0.0147,-0.0162,-0.0185,-0.0217,-0.0203,-0.0189,-0.0192,-0.0185,-0.0241,-0.0241,-0.0241,-0.0241,-0.0241,-0.0053,-0.0058,-0.0046,-0.0053,-0.0057,-0.0083,-0.0092,-0.0119,-0.0155,-0.0155,-0.0155,-0.0124,-0.0114,-0.0159,-0.0158,-0.0158,-0.0158,-0.0158,-0.0158,-0.0024,-0.0015,-0.0016,-0.0008,-0.0016,-0.0018,-0.004,-0.0065,-0.0083,-0.0111,-0.0116,-0.014,-0.0154,-0.0155,-0.0155,-0.0156,-0.0156,-0.0156,-0.0156,-0.0003,0.0001,0.0006,0.0023,0.0034,0.002,0.003,0.0001,-0.0041,-0.0041,-0.0063,-0.01,-0.0107,-0.0058,-0.0058,-0.0058,-0.0058,-0.0058,-0.0058,0.0014,0.0021,0.0037,0.0054,0.0066,0.0078,0.0066,0.0049,0.0005,-0.0008,-0.0038,-0.0091,-0.0094,-0.0102,-0.0056,-0.0056,-0.0057,-0.0057,-0.0057,0.0034,0.0036,0.0063,0.0077,0.0107,0.0116,0.0114,0.0082,0.0064,0.0032,-0.0,-0.0004,-0.002,-0.0025,-0.0032,0.0036,0.0037,0.0037,0,0.0047,0.005,0.008,0.0105,0.0131,0.0136,0.0138,0.0112,0.0058,0.0068,0.0031,-0.0005,-0.0008,-0.0028,-0.0031,-0.0039,0,0,0,0.006,0.0067,0.0086,0.0107,0.0134,0.0138,0.0136,0.0125,0.0088,0.0061,0.0048,0.0045,-0.003,-0.005,-0.0084,-0.0088,-0.0103,0,0]}]]